Location: ??
(35.5052°N, 139.7262°E)
Time: 03:42:33
(UTC+00:00)

Cosmos 1816 Rocket - Visible Passes

Search period start: 19 October 2021 00:00
Search period end: 29 October 2021 00:00
Orbit: 950 x 1000 km, 82.9° (Epoch: 18 October)

Date Brightness Start Highest point End Pass type
(mag) Time Alt. Az. Time Alt. Az. Time Alt. Az.
22 Oct 6.7 10:36:51 10° N 10:37:15 12° N 10:37:15 12° N visible
23 Oct 6.8 11:02:01 10° N 11:02:41 13° N 11:02:41 13° N visible
24 Oct 6.5 09:43:07 10° NNE 09:43:29 11° NNE 09:43:29 11° NNE visible
24 Oct 6.9 11:27:35 10° NNW 11:28:10 13° NNW 11:28:10 13° NNW visible
25 Oct 6.3 10:07:38 10° N 10:09:01 17° NNE 10:09:01 17° NNE visible
26 Oct 6.2 10:32:40 10° N 10:34:38 22° N 10:34:38 22° N visible
27 Oct 6.2 09:14:09 10° NNE 09:15:37 15° NE 09:15:37 15° NE visible
27 Oct 6.3 10:58:09 10° NNW 11:00:19 23° NNW 11:00:19 23° NNW visible
28 Oct 5.6 09:38:27 10° NNE 09:41:26 25° NNE 09:41:26 25° NNE visible
28 Oct 6.7 11:24:05 10° NNW 11:26:08 19° NW 11:26:08 19° NW visible
